Location: Byszew
(52.1813°N, 19.2693°E)
Time: 17:04:48
(UTC+00:00)

SL-16 R/B - Pass Details

Date: 03 March 2021
Orbit: 843 x 845 km, 71.0° (Epoch: 16 April)

Event Time Altitude Azimuth Distance (km) Brightness Sun altitude
Rises 19:34:18 0° 258° (WSW) 3,401 6.0 -28.7°
Reaches altitude 10° 19:37:15 10° 273° (W) 2,470 5.4 -29.1°
Maximum altitude 19:41:43 23° 325° (NW) 1,725 4.4 -29.7°
Drops below altitude 10° 19:46:12 10° 17° (NNE) 2,479 4.8 -30.3°
Sets 19:49:11 0° 32° (NNE) 3,418 5.4 -30.6°
